Regional Weather Roundup
Issued by NWS

Home | Current Version | Previous Version | Graphics & Text | Print | Product List | Glossary On
Versions: 1 2 3 4 5 6 7 8 9 10 11 12 13 14 15 16 17 18 19 20 21 22 23 24 25 26 27 28 29 30 31 32 33 34 35 36 37 38 39 40 41 42 43 44 45 46 47 48 49 50
241
ASUS43 KDMX 191906
RWRIA

WEATHER ROUNDUP FOR IOWA
NATIONAL WEATHER SERVICE DES MOINES IA
200 PM CDT SAT AUG 19 2017

NOTE: "FAIR" INDICATES FEW OR NO CLOUDS BELOW 12,000 FEET WITH NO
SIGNIFICANT WEATHER AND/OR OBSTRUCTIONS TO VISIBILITY.

* - THESE STATIONS ARE NOT NWS STATIONS...THUS NOT UNDER NWS
QUALITY CONTROL.  THEY ALSO DO NOT REPORT WEATHER SUCH
AS PRECIPITATION OR FOG.

IAZ001>003-012>014-020>022-031>034-043>046-192000-
   NORTHWEST IOWA

CITY           SKY/WX    TMP DP  RH WIND       PRES   REMARKS
CARROLL *      SUNNY     77  68  73 VRB5      29.96F
CHEROKEE *     SUNNY     79  64  60 S7        29.95F HX  80
DENISON *      SUNNY     79  63  57 CALM      29.97F HX  80
LE MARS *      SUNNY     79  63  57 VRB6G12   29.94F HX  80
ORANGE CITY *  SUNNY     79  64  61 SE5       29.95F HX  81
SHELDON *      SUNNY     77  64  65 VRB6G13   29.94S
SIOUX CITY     SUNNY     80  65  59 SE6       29.93F HX  82
SPENCER        SUNNY     78  63  59 SE7       29.95F HX  80
STORM LAKE *     N/A     75  66  73 SE6       29.96F
$$

IAZ055>058-069>071-079>083-090>094-192000-
   SOUTHWEST IOWA

CITY           SKY/WX    TMP DP  RH WIND       PRES   REMARKS
ATLANTIC *     SUNNY     81  63  54 E5        29.96F HX  82
AUDUBON *      SUNNY     79  66  65 CALM      29.98S HX  81
CLARINDA *     SUNNY     84  61  45 CALM      29.99S HX  84
COUNCIL BLFS * SUNNY     82  59  44 CALM      29.96F HX  82
CRESTON *      SUNNY     84  57  39 VRB5G12   29.98F HX  83
HARLAN  *      SUNNY     81  61  50 CALM      30.00S HX  81
LAMONI         SUNNY     87  57  35 VRB7      29.96F HX  86
RED OAK *      SUNNY     82  63  51 CALM      29.97S HX  83
SHENANDOAH *   SUNNY     84  61  45 CALM      29.97S HX  84
$$

IAZ047>049-059>061-072>074-084-192000-
   CENTRAL IOWA

CITY           SKY/WX    TMP DP  RH WIND       PRES   REMARKS
AMES           MOSUNNY   80  69  69 E8        29.95F HX  83
ANKENY *       MOSUNNY   81  66  61 VRB6      29.96S HX  83
BOONE *        MOSUNNY   79  66  65 E6        29.95F HX  81
CHARITON *     SUNNY     84  61  45 NW8       29.95F HX  84
DES MOINES     MOSUNNY   81  63  54 SE6       29.95S HX  82
GRINNELL*      MOSUNNY   78  65  65 E7        29.98S
KNOXVILLE *    SUNNY     84  57  39 W6        29.94S HX  83
MARSHALLTOWN   MOSUNNY   77  64  64 E6        29.96F
NEWTON *       MOSUNNY   77  66  69 SE5       29.96F
PELLA *        SUNNY     83  61  46 W5        29.95F HX  84
PERRY *        CLOUDY    81  68  65 CALM      29.96F HX  83
$$

IAZ004>006-015-016-023>025-035-036-192000-
   NORTH CENTRAL IOWA

CITY           SKY/WX    TMP DP  RH WIND       PRES   REMARKS
ALGONA *       MOSUNNY   77  66  69 VRB6      29.96F
CLARION *      SUNNY     77  66  69 SE7G13    29.96F
ESTHERVILLE    MOSUNNY   75  65  70 SE8       29.95F
FORT DODGE *   MOSUNNY   79  64  61 E3        29.97S HX  81
MASON CITY     MOSUNNY   78  61  55 VRB3      29.98F HX  80
FOREST CITY *    N/A     77  61  57 S5        29.96F
WEBSTER CITY * MOSUNNY   79  64  61 E9        29.94S HX  81
IOWA FALLS *     N/A     78  63  58 SE5       29.99S HX  80
$$

IAZ007>011-017>019-026>030-037>042-050>054-066-192000-
   NORTHEAST IOWA

CITY           SKY/WX    TMP DP  RH WIND       PRES   REMARKS
CEDAR RAPIDS   SUNNY     79  60  52 VRB5      29.96F HX  80
CHARLES CITY * MOSUNNY   77  63  61 SW5       29.98F
CLINTON *      SUNNY     80  59  48 CALM      29.98S HX  81
DECORAH *      SUNNY     77  57  50 VRB5      29.97F
DUBUQUE        MOSUNNY   76  62  62 SW6       29.98F
MONTICELLO *   SUNNY     79  61  53 CALM      29.98R HX  80
OELWEIN *      SUNNY     77  61  57 CALM      29.98F
WATERLOO       PTSUNNY   79  59  50 S6        29.95F HX  80
$$

IAZ064-065-067-068-078-192000-
   EAST CENTRAL IOWA

CITY           SKY/WX    TMP DP  RH WIND       PRES   REMARKS
DAVENPORT      SUNNY     80  60  50 NE6       29.98F HX  81
IOWA CITY      SUNNY     82  61  48 SE8       29.98S HX  83
MT. PLEASANT * MOSUNNY   82  64  53 E5        29.96S HX  83
MUSCATINE *    SUNNY     82  59  44 VRB5G12   29.96S HX  82
QUAD CITIES    SUNNY     81  60  48 SE8       29.96F HX  82
$$

IAZ062-063-075>077-085>089-095>099-192000-
   SOUTHEAST IOWA

CITY           SKY/WX    TMP DP  RH WIND       PRES   REMARKS
BURLINGTON     SUNNY     81  67  62 CALM      29.96S HX  83
FAIRFIELD *    MOSUNNY   84  63  48 E7        29.95S HX  85
FORT MADISON * MOSUNNY   81  70  69 E3        29.97S HX  84
KEOKUK *       MOSUNNY   84  68  58 SE9       29.95S HX  87
OSKALOOSA *      N/A     83  64  52 CALM      29.96S HX  84
CENTERVILLE *    N/A     84  63  48 CALM      29.97S HX  85
OTTUMWA        SUNNY     84  62  47 SE5       29.94F HX  85
WASHINGTON *   SUNNY     81  66  61 CALM      29.97F HX  83
$$

ABBREVIATIONS USED IN REMARKS
   TC - TEMPERATURES IN CELSIUS
  WCI - WIND CHILL INDEX
   HX - HEAT INDEX
  VSB - VISIBILITY
$$





USA.gov is the U.S. government's official web portal to all federal, state and local government web resources and services.